Temp
23 24 24 24 25 25 25 24 24 24 23 23 23 22 22 22 22 22 22 21 21 21 21 21 21 21 20 20 20 20 20 20 20 20 20 20 20 20 20 20 20 20 20 20 20 20 20 19 19 19 18 18 18 17 17 17 17 17 17 17 17 17 16 14 12 13 15 15 15 16 16 15 15 16 16 16 16 15 15 15 15 15 15 15 15
23 24 23 24 24 25 25 24 24 24 23 23 23 22 22 22 22 22 21 21 21 21 21 21 21 21 21 20 21 21 20 20 20 20 20 21 21 21 20 20 20 20 20 20 20 20 19 19 19 19 18 18 18 18 18 17 17 17 17 17 17 17 17 15 14 12 13 15 15 16 16 15 15 16 16 15 15 15 15 15 15 15 15 15 15
23 23 23 23 24 25 25 24 24 24 24 23 23 23 22 22 22 22 21 21 21 21 21 21 21 21 21 21 21 21 20 20 20 21 21 21 21 21 21 21 21 20 20 20 20 19 19 19 19 19 18 18 18 18 18 17 17 17 17 17 17 17 17 16 15 13 12 13 15 15 15 15 15 15 15 15 15 14 14 15 15 15 15 15 15
23 23 23 23 24 24 24 24 24 24 24 23 23 22 22 22 22 22 21 21 22 21 21 21 21 21 21 21 21 21 21 21 21 21 21 21 21 21 21 21 21 20 20 20 20 19 19 19 19 19 18 18 18 18 17 17 17 17 17 17 16 16 17 16 16 15 13 13 14 14 14 14 14 15 15 15 15 14 14 14 14 14 14 14 14
23 23 23 23 23 24 24 24 24 24 24 23 23 22 23 22 22 22 21 22 22 22 21 21 21 21 21 21 21 21 21 21 21 21 21 21 21 21 21 21 21 20 20 20 20 20 19 19 19 19 18 18 18 18 17 17 17 17 17 17 16 16 16 16 16 15 14 12 13 14 14 13 13 14 15 15 14 14 14 14 14 14 14 14 14
23 23 22 22 23 23 23 23 24 24 24 23 23 23 23 22 22 22 22 22 22 22 22 21 21 21 21 21 21 21 21 21 21 21 21 21 21 21 21 21 21 20 20 20 20 20 20 20 20 19 19 19 19 18 18 18 17 17 17 17 16 16 15 15 15 15 14 13 12 13 13 13 13 14 15 15 14 14 14 14 14 14 14 14 14
23 23 22 22 22 22 23 23 24 24 24 24 23 23 23 23 22 22 22 22 22 22 22 21 21 21 21 21 21 21 21 21 21 21 21 21 21 21 21 21 21 21 20 20 20 20 20 20 20 20 19 19 19 19 18 18 17 17 17 17 17 16 15 15 15 14 13 13 12 13 13 13 13 13 14 14 13 13 13 13 13 13 13 13 13
23 22 22 22 22 22 23 24 24 24 24 24 23 22 23 23 23 23 22 22 22 22 22 22 22 22 22 21 21 21 21 21 21 21 21 21 21 21 21 21 21 21 20 20 20 20 20 20 20 20 19 19 19 19 18 18 17 17 17 17 17 16 15 15 14 14 13 13 13 13 13 13 13 13 14 13 13 13 14 13 13 13 13 13 13
23 22 22 22 22 22 23 24 24 24 24 24 23 23 23 23 23 23 23 22 22 22 22 22 22 22 22 21 21 21 21 21 21 21 21 21 21 21 21 21 20 20 20 20 20 20 20 20 20 19 19 19 19 18 18 18 18 17 17 17 17 16 15 15 14 14 13 13 13 13 13 13 13 13 13 13 13 13 13 13 13 13 13 13 13
23 22 22 22 22 22 22 23 24 24 24 24 23 23 23 23 23 23 23 22 22 22 22 22 22 22 22 21 21 21 21 21 21 21 21 21 21 21 21 21 20 20 20 20 20 20 20 19 19 19 19 19 18 18 18 18 18 17 17 17 16 16 15 15 14 14 13 13 13 13 12 13 13 13 13 13 13 13 13 13 13 13 13 12 13
23 22 22 22 22 22 22 23 24 24 24 23 22 23 23 23 23 23 23 22 22 22 22 22 22 22 22 21 21 21 21 21 21 21 21 21 21 21 21 21 20 20 20 20 20 19 19 19 19 19 19 18 18 18 18 18 18 17 17 17 16 16 15 15 14 14 13 13 13 13 12 12 13 13 13 13 13 13 13 13 13 12 12 12 12
23 22 22 22 21 21 22 22 22 22 22 21 21 22 23 23 23 23 22 22 22 22 22 22 22 22 22 22 22 22 22 21 21 21 21 21 21 21 21 21 20 20 20 20 19 19 19 19 19 19 18 18 18 18 18 18 18 18 17 17 17 16 16 15 15 15 14 13 13 13 13 13 13 13 13 13 13 13 13 13 12 12 12 12 12
23 22 22 21 21 20 20 20 20 21 21 20 20 22 23 23 23 23 23 23 22 22 22 22 22 22 22 22 22 22 22 22 21 21 21 21 21 21 21 21 20 20 19 19 19 18 18 18 18 18 18 18 18 18 18 18 18 18 18 18 17 17 17 16 16 15 15 14 13 13 13 13 13 13 14 14 13 13 12 12 12 12 12 12 12
22 22 21 20 20 20 19 19 21 22 21 20 19 21 23 24 24 23 23 23 22 22 22 22 22 22 22 22 22 22 22 22 22 21 21 21 21 21 21 20 20 20 19 19 18 18 18 18 17 18 18 18 18 18 18 18 17 18 18 18 18 17 17 17 16 16 15 14 13 13 14 14 14 14 14 13 13 12 12 12 12 12 12 12 12
22 22 21 20 19 20 20 21 22 22 21 19 19 20 22 23 24 23 23 23 23 23 22 22 23 22 22 22 22 22 22 22 22 22 21 20 20 20 20 20 20 19 19 19 18 18 18 17 17 17 17 17 18 17 17 17 17 17 17 17 17 17 16 16 16 15 15 14 14 14 14 14 14 14 14 13 13 13 12 12 11 11 11 11 12
22 22 20 19 19 20 20 21 22 21 20 19 19 20 21 22 23 23 23 23 23 23 23 23 23 22 22 22 22 22 22 22 22 22 21 20 20 20 20 20 19 19 19 18 18 17 17 17 17 17 17 17 17 17 17 17 16 16 16 16 16 16 16 16 15 15 14 14 14 14 14 14 14 14 14 13 13 13 12 12 11 11 11 12 12
22 21 20 20 20 20 20 19 20 20 19 19 19 19 20 21 22 23 23 22 22 23 23 23 22 22 21 21 20 20 21 22 22 21 21 20 19 19 20 19 19 19 18 18 18 17 17 17 17 17 17 17 17 16 16 16 16 15 15 15 14 14 15 15 15 14 14 14 14 14 14 14 14 14 14 14 14 14 12 11 11 12 12 12 12
21 21 20 19 19 19 19 19 20 20 20 19 19 19 20 21 21 22 22 22 22 22 22 22 21 21 20 20 19 20 21 22 22 21 21 20 19 19 19 19 19 18 18 18 17 17 16 16 16 16 16 16 16 16 15 15 15 15 14 13 13 13 13 14 13 13 13 13 13 13 14 14 14 14 14 14 14 14 12 11 12 12 12 12 12
21 20 19 19 19 18 19 19 20 20 19 19 19 19 20 20 20 21 21 22 22 22 21 20 20 20 19 19 20 21 21 21 21 21 21 20 19 19 19 18 18 18 18 17 17 16 16 16 16 16 16 16 15 15 15 15 14 14 13 12 12 12 12 12 12 12 12 12 12 12 13 14 14 13 13 14 14 14 13 12 12 11 12 12 13
20 19 18 18 18 18 19 20 19 19 19 19 19 19 19 19 19 19 20 20 21 21 20 20 20 19 19 19 20 21 20 20 20 20 20 19 18 18 18 18 18 17 17 17 16 16 16 15 15 15 15 15 14 14 14 14 13 13 12 12 11 11 12 11 12 12 12 12 12 12 12 13 13 12 13 13 14 14 13 12 12 11 12 12 12
19 18 18 18 18 18 19 19 19 19 20 20 19 19 19 20 20 19 19 20 20 20 19 19 19 19 18 18 19 19 19 19 19 19 19 19 18 18 18 17 17 17 16 16 16 16 15 15 15 15 15 14 14 14 13 13 12 12 11 11 11 11 11 11 11 11 11 11 11 11 11 11 11 11 12 13 14 14 13 12 12 11 12 12 12
18 18 17 18 18 19 19 19 19 20 20 20 19 20 20 20 20 19 19 20 19 19 19 20 20 20 19 18 18 18 18 18 19 19 19 18 18 18 17 16 16 16 16 16 15 15 15 15 14 14 14 14 13 13 12 12 11 11 11 11 11 11 11 11 11 10 10 10 10 10 10 10 10 10 11 12 13 13 12 11 11 11 12 12 12
17 17 17 18 19 19 19 18 18 19 19 19 20 20 20 20 19 19 20 19 18 19 19 20 20 19 19 18 18 18 18 19 19 18 18 18 17 17 16 16 15 15 15 15 15 15 14 14 14 14 13 13 12 12 11 11 11 11 10 10 10 10 10 10 10 9 9 9 9 9 9 9 9 10 10 11 12 12 11 11 11 12 12 12 12
18 17 18 18 18 18 18 17 18 19 20 20 20 20 20 20 20 20 20 19 18 19 20 20 20 19 18 18 18 18 18 18 18 18 18 17 16 16 15 15 15 15 15 15 14 14 14 14 14 13 13 12 11 11 11 11 11 10 10 10 10 10 10 10 9 8 8 8 9 9 9 9 9 9 9 10 10 11 10 11 12 12 12 12 12
18 18 17 17 17 17 17 17 18 19 20 20 20 19 19 20 20 20 19 19 20 20 20 20 19 19 18 18 18 18 18 18 18 18 17 16 15 15 14 14 15 14 14 14 14 14 13 13 13 13 12 11 11 11 11 11 10 10 10 10 10 9 9 9 8 8 8 8 8 8 8 9 9 9 9 9 9 10 10 10 12 12 12 12 12
18 17 17 18 18 18 18 18 20 21 21 21 20 19 19 20 20 20 20 20 20 20 20 19 19 19 18 18 18 18 18 18 17 17 16 15 14 14 14 14 14 14 14 14 13 13 13 13 12 11 11 11 11 11 10 10 10 10 9 9 9 9 9 8 8 7 7 7 7 8 8 8 9 9 9 9 9 10 10 10 11 11 11 11 12
18 18 18 19 19 19 18 18 20 21 21 20 19 18 19 20 20 20 20 20 20 20 20 19 19 19 18 18 18 17 17 17 16 15 15 14 14 14 14 14 13 13 13 13 13 13 13 12 11 11 11 11 10 10 10 10 10 9 9 9 9 9 8 8 8 8 8 7 7 7 8 8 9 9 9 9 9 9 10 9 10 10 11 11 12
19 19 20 19 18 18 18 18 18 19 19 18 18 19 20 20 20 21 21 21 21 20 19 19 19 19 19 18 17 17 17 16 16 15 14 14 13 13 13 13 13 13 13 13 13 13 12 11 11 10 10 10 10 10 10 10 10 9 9 9 9 9 8 8 8 8 8 8 7 7 7 8 8 8 8 8 9 9 9 9 9 10 10 11 11
20 20 19 19 19 19 19 18 18 18 18 18 18 19 19 20 20 21 21 21 21 20 20 20 19 19 19 18 17 17 16 16 16 15 14 13 13 13 13 13 12 12 13 13 13 12 11 11 11 10 10 10 10 9 9 9 9 9 9 9 8 8 8 8 8 8 8 7 7 7 7 7 8 8 8 8 8 9 9 9 9 9 10 10 11
20 19 19 19 20 20 19 19 18 18 17 18 18 18 18 18 19 20 20 20 20 20 19 19 19 18 18 17 17 16 16 15 15 14 13 13 13 13 12 12 12 12 12 12 12 12 11 11 11 10 10 9 9 9 8 8 8 8 8 8 8 8 8 8 7 7 7 7 7 7 7 7 7 7 7 7 8 8 9 9 9 9 9 10 10
20 20 20 20 20 20 19 19 19 18 17 18 18 18 17 17 17 18 18 18 18 18 18 18 18 17 17 16 16 15 15 14 14 13 13 13 13 12 12 11 12 12 12 12 12 11 11 11 10 10 9 9 9 8 8 8 8 8 8 8 8 7 7 7 7 7 7 7 7 7 7 7 7 7 7 7 7 8 8 8 9 9 9 9 10
21 21 21 19 19 19 19 18 18 17 17 18 18 18 17 16 16 16 17 17 17 17 17 17 17 16 16 15 15 14 14 13 13 13 12 12 12 12 11 11 11 11 11 11 11 11 11 10 10 9 9 9 8 8 7 7 7 7 7 7 7 7 7 7 7 7 7 7 7 7 7 6 6 7 7 7 7 7 8 8 8 8 9 9 10
22 22 21 20 19 19 19 18 18 18 18 18 17 17 18 17 16 15 15 16 16 16 16 16 15 15 15 14 14 13 13 13 12 12 12 12 11 11 11 11 11 11 11 11 11 10 10 10 9 9 9 8 8 7 7 7 7 7 7 7 7 7 7 7 7 7 7 7 7 6 6 6 6 6 7 7 7 7 7 8 8 8 8 9 9
22 23 22 21 20 20 19 19 18 18 18 18 17 17 17 17 17 16 15 15 15 15 14 14 14 14 14 13 13 13 13 12 12 11 11 11 11 11 11 11 11 11 11 11 10 10 10 9 9 9 8 8 8 7 7 7 7 7 7 7 7 7 7 7 7 7 7 7 7 7 7 7 6 6 6 7 7 7 7 7 7 8 8 8 9
22 22 23 23 22 21 20 19 18 18 17 17 16 16 16 17 17 17 16 15 14 13 13 13 13 13 13 13 13 13 12 12 12 11 11 11 11 11 11 11 10 10 10 10 10 10 9 9 8 8 8 8 8 7 7 7 7 7 7 6 6 6 6 6 6 7 7 7 7 7 7 7 6 6 6 6 7 7 7 7 7 7 8 8 8
21 22 22 22 22 21 20 19 18 18 17 17 17 17 18 18 18 16 15 14 13 13 13 13 13 13 13 13 13 12 12 12 12 11 11 11 11 11 11 11 10 10 10 10 10 9 9 9 8 8 8 8 8 8 7 7 7 7 6 6 6 6 6 6 6 6 7 7 7 7 7 7 6 6 6 6 7 7 7 7 7 7 7 8 8
21 21 21 21 20 20 19 18 18 18 18 18 18 17 17 16 15 14 13 13 14 14 14 13 13 12 12 12 12 12 12 12 12 11 11 11 11 11 11 11 10 10 10 10 9 9 9 9 8 8 8 8 8 7 7 7 7 6 6 6 6 6 5 5 6 6 7 7 7 7 7 7 6 6 6 6 6 7 7 7 7 7 8 8 8
21 21 21 21 20 19 19 18 18 18 17 16 16 16 15 15 14 13 13 14 14 14 14 13 12 13 13 13 12 12 12 12 12 11 11 11 11 11 11 10 10 10 9 9 9 9 9 9 8 8 8 8 7 7 7 7 7 6 6 6 5 5 5 6 6 6 7 7 7 7 7 7 7 6 6 6 6 6 7 7 7 7 7 8 8
22 21 21 21 20 20 20 19 18 17 16 16 16 16 16 15 14 13 13 13 13 13 13 12 12 13 13 13 12 12 12 11 11 11 11 10 10 10 10 10 10 9 9 9 9 9 9 8 8 8 8 7 7 7 7 6 6 6 6 6 5 5 5 6 6 6 6 6 6 6 6 7 7 7 6 6 6 6 7 7 7 7 7 8 8
21 21 21 20 20 20 20 19 19 18 17 17 17 16 15 15 14 13 13 13 13 13 12 12 12 13 13 12 12 12 12 11 11 11 11 10 10 10 10 10 9 9 9 9 9 9 8 8 8 8 7 7 7 7 6 6 6 6 6 5 5 5 5 6 6 6 6 6 6 6 6 6 7 7 7 6 6 6 7 7 7 7 7 8 8
21 20 20 19 19 19 19 19 18 18 18 18 17 16 15 14 14 13 13 13 13 13 12 12 13 13 12 12 12 12 11 11 11 11 11 10 10 10 10 10 9 9 9 9 9 8 8 8 8 7 7 7 7 6 6 6 6 6 6 5 5 5 5 6 6 6 6 6 6 6 6 7 7 7 6 7 7 7 7 7 7 7 7 8 8
20 19 19 18 18 18 18 18 18 17 17 16 16 15 14 13 13 12 13 13 13 12 11 11 12 12 12 12 11 11 11 11 11 11 11 10 10 10 10 10 9 9 9 8 8 8 8 8 7 7 7 7 6 6 6 6 6 6 6 5 5 5 5 5 6 6 6 6 6 6 6 7 7 7 7 7 8 8 7 7 7 7 7 8 8
18 18 18 17 17 17 17 17 16 15 15 14 14 13 13 13 13 12 12 13 13 12 11 11 11 11 11 11 11 11 11 11 10 10 10 10 10 9 9 9 9 9 8 8 8 8 8 8 7 7 6 6 6 6 6 6 6 6 6 5 5 5 5 5 6 6 6 6 6 6 6 7 7 7 7 7 8 8 7 7 7 7 7 7 8
17 17 17 17 17 16 16 15 15 14 13 13 12 12 13 13 13 12 13 13 13 12 12 11 11 11 11 11 11 11 11 10 10 10 10 9 9 9 9 9 9 9 8 8 8 8 8 7 7 7 6 6 6 6 6 6 6 6 6 5 5 5 5 5 5 5 6 6 6 6 6 6 7 7 7 7 8 8 7 7 7 7 7 7 7
17 16 16 16 16 15 14 14 14 14 13 13 13 13 13 13 13 13 13 13 12 12 11 11 11 11 11 11 11 11 11 10 9 9 9 9 9 9 9 9 9 8 8 8 8 8 7 7 7 6 6 6 5 5 6 6 6 6 6 5 5 5 5 5 5 5 5 6 6 6 6 6 7 7 7 7 8 8 7 7 7 7 7 7 7
16 16 16 16 15 15 14 13 14 14 14 14 13 13 13 13 12 12 12 12 12 12 12 12 11 11 11 11 11 11 11 10 9 9 9 9 9 9 8 8 9 8 8 8 8 8 7 7 6 6 6 6 5 5 5 6 5 5 5 5 5 5 5 5 5 5 5 5 5 6 6 6 6 7 7 7 8 8 8 7 7 7 7 7 7
15 15 15 15 15 14 14 14 14 14 14 14 14 13 13 13 12 12 12 12 12 12 12 11 11 11 11 11 11 11 11 10 10 9 9 9 9 8 8 9 9 8 8 8 8 8 7 7 6 6 6 5 5 5 5 5 5 5 5 5 5 5 5 5 5 5 5 5 5 5 5 6 6 6 7 7 8 8 8 8 7 7 7 7 7
15 14 14 14 14 14 14 14 14 14 14 14 14 14 13 13 13 13 12 12 12 12 12 11 11 11 11 11 11 11 11 10 10 9 9 9 9 8 9 9 9 8 8 8 8 7 7 7 6 6 6 5 5 5 5 5 5 5 5 5 5 5 4 5 5 5 5 5 5 5 5 6 6 6 6 7 7 7 8 8 7 7 7 7 7
15 14 14 14 14 14 13 13 13 13 13 13 13 13 13 13 13 13 12 12 12 12 11 11 11 11 11 11 11 11 11 10 10 10 9 9 9 9 9 9 9 9 8 8 8 7 7 7 6 6 6 5 5 5 5 5 5 5 5 5 5 5 4 4 5 5 5 5 5 5 5 6 6 6 6 7 7 7 7 8 7 7 7 7 7
14 14 14 14 14 14 14 13 13 13 13 12 12 13 13 13 13 13 12 12 12 12 12 12 11 11 11 11 11 11 11 11 10 10 10 10 9 9 9 9 9 9 8 8 8 7 7 7 6 6 6 6 5 5 5 5 5 5 5 5 5 5 4 4 4 5 5 5 5 5 5 5 6 6 6 6 7 7 7 7 7 7 7 7 6
14 14 14 14 14 14 14 14 14 13 13 13 13 13 12 12 12 13 13 12 12 12 12 12 12 12 11 11 11 11 11 11 11 10 10 10 10 9 9 9 9 9 8 8 8 7 7 7 7 6 6 6 6 5 5 5 5 5 5 5 4 4 4 4 4 4 5 5 5 5 5 5 5 6 6 6 6 7 7 7 7 7 7 7 7
Height
771 773 775 777 781 784 788 791 793 796 798 800 803 804 805 806 806 806 805 807 809 810 811 812 812 813 813 814 815 817 817 817 817 817 817 816 816 815 814 814 813 813 813 813 812 812 811 811 810 810 810 811 811 811 810 810 811 810 810 810 808 808 807 807 806 802 798 798 797 795 794 793 790 787 785 781 779 778 777 775 774 772 769 767 764
768 770 773 775 778 781 785 788 791 794 796 798 800 802 803 804 805 805 804 805 807 809 809 810 810 810 810 811 812 814 814 815 815 815 815 814 813 812 812 811 811 810 810 810 810 810 809 808 808 808 808 808 808 808 808 808 808 808 807 807 806 805 805 804 803 801 797 795 795 794 793 792 789 786 784 780 777 775 773 771 769 768 766 764 760
765 768 771 773 776 780 783 786 789 792 794 795 796 799 800 802 803 803 803 803 804 806 807 808 808 808 808 808 809 811 812 812 812 812 812 811 810 810 809 808 808 808 808 807 807 807 807 806 806 806 806 805 805 805 805 805 805 805 804 804 803 802 802 801 800 799 797 794 793 792 791 790 787 785 783 779 776 774 771 768 765 763 762 760 757
763 765 768 771 774 777 780 782 786 788 790 790 792 795 798 799 801 802 802 802 802 803 805 806 807 806 806 806 806 808 809 809 810 810 809 808 808 807 806 806 805 805 805 805 805 805 804 804 803 803 803 803 803 803 803 802 802 802 801 800 800 799 799 799 797 796 795 792 791 790 790 788 786 782 780 777 774 772 769 766 763 760 757 756 753
760 762 765 768 770 773 775 778 782 784 785 786 789 792 794 795 798 799 800 800 800 801 802 804 805 804 804 803 804 805 806 807 807 806 806 805 805 804 804 803 803 803 803 803 803 803 802 801 801 801 801 800 800 800 799 799 799 799 798 797 797 796 796 796 795 794 793 791 789 788 788 787 784 781 778 775 771 768 765 762 760 757 754 751 749
756 758 761 763 765 768 771 774 777 779 781 783 785 788 790 792 794 796 797 797 797 798 800 801 802 802 801 801 801 802 803 804 804 804 803 803 802 802 801 800 801 801 801 801 801 801 800 800 799 799 799 798 797 797 797 797 796 796 795 794 794 793 793 792 792 791 790 789 788 786 785 784 782 778 776 774 770 766 762 757 754 754 751 747 744
752 754 756 758 761 764 767 769 772 774 776 779 781 784 786 787 790 792 793 794 794 795 797 798 799 799 799 798 799 800 801 802 802 802 801 800 800 799 798 798 798 798 798 799 799 799 798 798 797 797 796 796 795 795 794 794 794 793 792 791 791 790 790 789 789 789 788 787 786 785 782 781 779 776 773 771 769 765 762 756 749 748 748 744 740
747 749 751 754 757 759 761 764 767 770 773 775 777 779 781 783 786 788 790 791 792 793 794 795 797 797 797 796 796 798 799 800 800 800 799 798 798 797 796 796 796 796 796 796 796 797 796 796 796 795 794 794 793 793 792 792 791 790 789 789 788 787 787 786 786 786 785 784 783 782 780 778 776 773 770 769 766 763 761 757 749 744 743 740 736
742 744 747 750 752 753 756 760 763 767 769 770 773 775 776 779 783 785 787 788 789 790 791 793 794 794 794 794 794 796 797 798 798 798 797 796 795 794 794 794 794 794 794 794 794 794 794 794 793 793 792 791 791 790 790 789 789 787 786 786 785 784 784 783 783 782 782 781 781 779 778 775 772 770 768 766 764 760 758 755 748 742 740 735 731
738 740 742 745 747 749 753 756 759 762 764 766 769 772 774 777 780 783 784 786 787 788 790 791 792 792 792 791 792 794 795 795 795 795 795 794 793 793 792 792 792 792 792 792 792 792 792 792 791 790 790 789 788 788 787 787 786 785 784 783 782 782 781 780 780 780 779 778 777 776 775 772 769 767 764 762 760 758 755 752 747 740 736 731 724
734 736 739 742 745 746 748 751 753 755 758 762 767 770 772 775 778 780 782 783 785 786 788 789 789 789 789 789 790 791 792 793 793 793 792 792 791 790 790 790 790 790 790 790 790 790 790 790 789 788 787 786 786 785 785 784 783 782 781 780 780 779 778 778 777 776 776 775 773 773 771 768 765 764 761 758 756 755 752 749 744 738 733 729 721
731 735 737 740 741 741 744 748 752 757 762 767 769 769 771 773 776 778 779 781 783 784 785 786 786 786 786 786 787 788 789 790 790 790 790 789 789 788 788 788 787 788 788 788 788 788 788 787 786 785 784 783 783 783 782 782 781 780 779 777 776 776 775 775 774 773 772 771 770 768 766 764 762 761 759 755 753 751 748 744 741 736 730 726 720
731 735 738 741 743 746 752 756 760 764 768 772 772 770 770 771 773 775 776 778 780 782 783 784 784 784 784 784 784 785 786 786 787 787 787 786 786 785 785 785 785 786 786 786 786 786 785 785 784 782 782 781 781 780 779 779 778 777 776 774 773 773 772 772 771 770 769 767 766 764 762 761 759 757 755 753 750 747 743 739 735 732 726 721 716
734 737 739 741 743 747 753 757 760 761 763 767 770 770 769 769 770 772 774 776 777 779 780 781 781 781 781 781 782 783 783 784 784 784 784 784 783 783 783 783 783 783 783 783 784 784 783 782 781 780 779 779 778 778 777 776 775 774 773 772 771 770 770 769 768 767 765 764 762 760 758 758 756 753 752 751 748 744 739 734 729 725 720 714 709
734 736 737 738 738 739 742 747 752 756 759 764 769 770 768 768 769 770 771 772 774 775 777 778 778 778 779 779 780 780 781 782 782 781 781 781 781 781 781 781 781 781 781 781 781 781 781 780 778 778 777 776 776 775 774 773 772 771 770 769 768 767 767 766 765 764 762 761 759 757 756 754 753 750 748 747 744 740 735 731 724 718 712 705 700
731 732 733 734 734 735 736 741 748 753 758 764 768 769 768 767 767 767 768 770 771 773 774 775 775 776 776 777 778 778 779 779 779 779 778 779 780 779 779 779 779 779 779 779 779 779 778 777 776 775 775 774 773 773 771 770 769 768 767 766 765 764 763 762 762 760 759 758 756 755 753 751 749 747 744 742 739 734 731 726 720 713 706 698 692
727 729 729 730 733 736 739 743 748 754 759 763 765 766 766 765 764 764 765 767 768 770 771 772 773 773 774 775 777 778 778 777 777 776 776 777 777 777 777 777 777 777 777 777 777 776 776 775 774 773 772 771 771 770 769 768 767 766 765 764 763 761 759 758 758 757 756 754 753 751 749 747 745 743 740 739 735 731 727 722 714 707 701 693 686
724 724 726 729 734 738 739 742 746 751 757 761 762 762 762 760 760 761 762 764 765 767 769 770 770 771 771 773 775 776 776 775 774 773 773 774 775 775 775 775 775 775 775 775 775 774 774 773 772 771 770 769 769 768 767 766 765 765 764 762 761 759 757 756 755 753 752 750 749 747 745 743 742 739 737 735 732 728 724 718 710 703 696 688 680
719 721 726 731 735 736 737 740 744 749 755 758 757 757 756 757 759 761 761 762 763 765 766 768 768 769 769 771 773 773 773 773 772 771 771 772 773 773 773 773 773 773 773 773 773 772 772 772 771 769 768 767 766 766 765 765 764 763 762 761 759 757 756 755 753 750 749 747 745 743 741 739 738 736 734 731 727 724 719 714 707 700 691 682 675
716 721 725 728 731 733 736 740 746 750 753 753 753 754 755 758 762 764 763 762 762 763 766 767 768 769 769 771 771 770 771 771 770 769 770 770 771 770 771 771 771 772 772 771 771 771 770 770 769 768 766 765 764 764 764 763 762 762 761 760 758 757 755 753 752 750 747 745 743 741 738 736 735 732 729 726 722 717 713 707 702 696 687 677 669
718 722 725 727 732 735 737 741 744 746 747 748 751 754 756 758 761 763 763 761 761 762 764 765 766 766 768 770 769 768 768 768 768 768 768 768 768 768 768 769 770 770 770 770 769 769 768 767 767 765 764 763 763 762 762 762 761 761 760 759 757 756 754 752 750 748 746 743 741 739 736 734 732 728 725 721 716 712 707 701 695 690 682 672 663
728 730 731 733 735 736 738 741 742 742 744 748 752 754 755 756 758 759 761 762 762 762 761 760 760 761 764 767 767 765 766 766 765 766 766 766 766 766 767 768 768 768 768 768 768 767 766 765 764 763 762 762 761 761 761 761 760 760 759 757 756 754 753 751 748 746 744 742 740 737 734 732 729 725 721 717 712 708 702 696 689 683 675 666 657
732 736 737 737 738 739 741 743 744 745 747 749 752 753 754 757 758 759 760 762 763 762 759 757 757 758 760 762 763 763 763 764 764 764 764 764 764 764 765 767 767 767 767 767 766 765 764 763 763 762 761 760 760 760 760 759 759 758 757 756 755 753 751 749 747 745 743 741 738 735 733 730 727 723 719 714 709 704 699 692 685 678 669 659 650
730 736 739 739 740 743 745 747 749 749 747 747 750 752 754 755 755 755 754 755 756 757 755 755 754 755 756 758 759 760 761 762 762 762 762 762 763 763 765 766 766 766 766 765 764 763 762 762 761 760 760 759 759 759 758 758 757 756 755 754 753 752 750 748 746 744 742 739 737 734 731 729 726 722 718 713 708 702 697 691 683 676 668 658 648
728 732 736 737 739 743 745 747 749 748 745 745 748 750 750 750 749 749 749 750 752 752 752 752 752 753 754 756 757 759 760 760 761 761 761 761 762 763 764 765 765 765 764 763 762 761 761 760 760 759 759 759 758 758 757 757 756 755 754 753 752 750 748 747 745 743 741 738 736 733 730 727 724 721 716 712 706 701 695 689 681 673 666 658 650
726 729 732 734 737 741 743 744 745 744 742 741 743 746 747 746 745 746 747 748 749 749 749 750 751 752 753 754 756 757 758 759 760 760 760 760 761 762 763 763 764 763 762 762 761 760 760 759 759 759 759 758 758 757 756 756 755 754 753 752 751 749 747 746 744 742 740 737 735 733 730 726 723 719 715 710 705 700 695 689 681 673 666 659 653
724 728 732 734 736 738 741 742 740 739 739 740 742 745 746 745 744 745 745 745 746 746 747 748 749 751 752 753 755 756 757 758 758 759 759 760 761 762 762 762 762 762 761 760 760 759 759 759 759 759 759 758 757 756 755 755 754 753 752 751 750 748 747 745 743 741 739 737 735 732 729 725 721 717 713 709 705 700 695 689 683 676 669 662 656
725 729 732 735 736 737 739 740 739 738 740 743 744 744 744 744 743 742 742 743 743 744 745 747 748 750 751 752 754 755 756 756 757 757 758 759 760 761 761 761 761 760 759 759 758 758 758 759 759 759 758 758 757 756 755 754 753 752 752 750 749 748 746 744 742 740 738 736 734 732 728 724 721 717 713 709 705 700 695 690 685 679 672 665 660
726 729 731 733 735 736 738 739 740 742 745 746 746 745 744 742 741 740 741 741 742 743 744 745 747 749 750 752 753 754 754 754 755 756 757 758 759 760 760 760 759 758 758 757 757 758 758 758 759 758 758 757 756 755 754 753 752 752 751 749 748 747 745 743 741 739 737 736 734 731 728 724 720 717 714 709 705 700 696 691 686 680 674 669 664
725 727 729 729 730 731 732 734 736 739 741 740 739 740 740 740 740 740 740 740 741 743 744 745 747 749 750 751 752 752 752 752 753 754 756 757 758 759 759 758 758 757 756 756 756 757 757 758 758 758 757 757 756 755 754 753 752 751 750 749 748 746 744 743 741 739 737 735 733 731 728 725 721 717 714 710 705 700 696 692 688 682 676 671 666
722 724 725 725 725 725 726 728 729 732 734 732 732 735 737 738 739 739 739 740 741 743 744 745 747 748 749 750 750 750 750 751 752 753 755 756 757 757 757 757 756 756 756 755 756 757 757 757 758 757 757 757 756 755 754 753 752 751 749 748 747 746 744 743 741 739 737 735 733 731 728 726 722 718 715 712 707 702 697 693 689 685 679 675 670
719 720 721 722 723 724 726 727 727 729 729 729 731 733 735 736 737 738 739 740 741 742 743 745 746 747 747 748 748 748 749 750 751 753 754 755 756 756 756 756 755 755 755 755 756 757 757 757 757 757 757 757 756 755 754 753 752 751 749 748 747 746 745 743 741 739 737 735 733 731 728 725 723 719 716 713 709 704 700 695 691 688 683 679 674
717 718 718 720 722 724 725 725 726 726 727 728 730 732 733 734 735 737 738 739 741 742 743 744 746 746 746 746 746 747 748 750 751 753 754 754 755 755 755 755 755 755 755 755 756 757 757 757 757 757 757 757 756 755 754 753 752 750 749 748 747 746 744 743 741 739 737 735 733 731 728 726 723 719 716 713 710 706 703 698 694 690 686 682 678
716 716 717 718 720 722 722 723 724 725 726 727 729 730 731 733 734 735 737 739 740 742 743 744 745 744 745 745 746 747 749 750 751 752 753 753 754 754 755 755 755 755 755 755 756 757 757 756 757 757 757 757 756 755 754 752 751 750 749 748 747 745 744 742 741 739 737 735 733 731 728 726 723 720 717 714 710 707 704 700 697 693 689 685 680
716 716 717 718 719 720 721 722 723 724 725 727 728 730 731 733 734 735 737 738 739 741 742 743 744 744 744 745 746 748 749 750 751 752 752 753 753 753 754 754 754 754 755 755 756 757 757 756 756 757 757 757 756 754 753 752 751 750 748 747 746 745 743 742 740 739 737 735 733 731 728 726 724 721 719 715 712 709 705 702 699 696 692 688 683
716 716 717 718 719 720 721 722 723 724 725 726 728 730 731 733 734 735 736 738 739 741 741 742 743 744 744 745 746 748 749 750 751 751 751 752 752 752 752 753 753 754 754 755 756 756 756 756 756 756 756 756 755 754 753 751 750 749 748 747 745 744 743 742 740 739 737 735 733 731 729 726 724 722 719 716 713 710 707 704 701 697 693 690 686
715 716 717 717 718 719 720 721 722 723 725 727 728 730 731 732 734 735 737 738 739 739 741 742 743 744 744 746 747 748 748 749 750 751 751 752 752 752 752 752 752 753 754 754 755 756 756 755 755 756 756 756 755 754 752 751 750 748 747 746 745 744 743 742 740 739 737 735 733 731 729 727 724 722 720 717 714 711 708 705 701 698 694 691 687
715 716 717 718 718 719 720 721 722 724 726 727 729 730 731 732 733 735 737 738 738 739 740 741 742 743 744 745 746 747 748 749 750 750 751 751 752 752 751 751 752 752 753 754 755 755 755 755 755 755 755 755 754 753 752 750 749 748 746 746 745 744 743 742 741 739 737 735 734 732 729 727 725 722 720 718 715 712 709 706 702 699 695 692 689
715 716 717 718 719 720 721 721 723 724 726 727 729 730 731 732 733 734 736 736 737 738 739 740 742 743 744 745 746 747 748 748 749 750 751 751 751 751 751 751 751 752 753 753 754 754 754 754 755 755 755 755 754 753 751 750 748 747 746 745 744 744 743 742 741 739 738 736 734 732 730 728 725 723 721 719 717 714 710 707 704 701 697 694 692
715 717 718 719 720 721 722 722 724 725 726 727 727 728 729 730 731 732 734 735 736 737 738 739 740 742 743 745 746 746 747 748 749 749 750 750 750 750 750 750 751 752 752 753 754 754 754 754 754 754 755 754 753 752 751 749 748 747 746 745 744 744 743 742 741 740 738 737 735 733 731 728 726 724 721 719 717 715 712 709 706 703 700 697 694
715 717 718 719 720 721 722 723 724 725 725 726 726 726 727 729 729 731 732 733 734 736 737 738 739 741 743 744 745 746 747 748 748 748 748 748 748 748 749 749 750 751 752 753 753 753 753 754 754 754 754 754 753 752 750 749 748 747 746 745 745 744 744 743 742 741 739 738 736 734 732 730 727 725 723 720 718 716 713 710 707 704 701 698 695
716 717 718 719 721 722 722 724 725 725 725 725 725 725 727 729 731 733 732 732 734 735 736 737 739 741 742 744 745 746 746 747 747 747 747 746 746 747 748 749 750 751 752 752 753 753 753 753 753 754 754 753 753 751 750 749 748 747 746 746 745 745 744 743 742 741 740 739 737 735 733 731 729 726 724 722 719 716 714 711 709 706 703 700 698
717 718 719 721 722 723 724 725 725 725 725 725 726 728 729 729 731 733 733 733 734 735 736 737 738 740 741 743 744 745 745 746 746 746 745 745 746 746 747 749 750 750 751 752 752 752 753 753 753 753 753 753 752 751 750 749 748 747 747 746 745 745 744 743 742 742 740 739 738 736 734 732 730 728 725 723 721 718 715 712 710 707 705 702 700
718 720 721 722 723 724 725 725 725 725 726 727 729 730 731 731 732 732 733 734 734 735 735 736 737 738 740 742 743 744 744 744 744 745 744 745 745 746 747 748 749 750 751 751 751 752 752 752 753 753 753 753 752 751 750 749 748 747 747 746 746 745 744 744 743 742 741 740 738 737 735 733 731 729 727 724 722 720 717 714 712 709 707 705 702
719 721 722 723 723 724 724 724 725 725 726 727 728 730 731 731 731 732 733 733 734 734 735 736 736 738 739 740 741 742 743 743 743 743 743 744 745 746 747 748 748 749 750 750 751 751 752 752 753 753 753 752 752 751 750 749 748 747 747 746 746 745 745 744 743 742 741 740 739 738 736 734 732 730 728 726 724 722 719 717 715 712 709 707 705
720 721 722 722 723 723 723 724 725 725 725 726 727 728 729 730 730 731 732 733 733 734 735 735 736 737 738 739 740 741 741 741 742 742 742 743 744 745 746 747 748 748 749 749 750 750 751 752 752 752 752 752 751 751 750 749 748 748 747 747 746 746 745 744 744 743 742 741 740 739 737 736 734 732 730 728 725 723 721 719 717 715 712 710 708
720 721 722 722 723 723 724 724 725 725 725 726 726 727 728 729 729 731 732 732 733 733 734 734 735 736 737 738 739 739 739 740 740 741 742 742 743 744 745 746 746 747 748 748 749 750 750 751 751 751 751 751 751 751 750 749 748 748 747 747 746 746 745 745 744 743 742 742 740 739 738 737 735 733 732 729 727 725 723 721 719 717 715 713 711
720 721 722 722 722 723 724 724 725 725 725 726 726 727 727 728 729 730 730 731 732 732 733 733 734 735 735 736 737 737 738 739 739 740 741 741 742 743 744 745 745 746 747 748 748 749 750 750 751 751 751 751 751 751 750 750 749 748 748 747 746 746 745 745 744 744 743 742 741 740 739 738 736 735 733 731 729 727 725 723 721 719 717 715 713
721 721 721 722 722 723 723 724 724 725 725 725 726 726 727 727 728 729 729 730 730 730 731 731 732 733 734 734 735 736 736 737 737 738 739 740 741 742 743 744 745 745 746 747 748 748 749 749 750 750 750 750 750 750 750 750 749 748 748 747 746 746 746 745 745 744 744 743 742 741 740 739 737 736 734 732 731 729 727 725 723 721 720 718 716
721 721 721 722 722 722 723 723 724 724 724 725 726 726 726 726 727 727 728 728 729 729 729 729 729 730 731 732 733 734 734 735 736 737 738 739 740 741 742 743 744 744 745 746 747 747 748 749 749 749 749 750 750 750 750 749 749 748 747 747 746 746 745 745 745 745 744 744 743 742 741 740 738 737 735 734 732 731 729 727 726 724 722 721 719
721 721 721 721 722 722 722 723 723 723 724 724 724 724 724 724 724 725 725 726 726 727 727 727 727 728 729 730 731 731 732 733 734 735 736 737 739 739 740 741 742 743 744 745 746 746 747 748 748 748 749 749 749 750 749 749 749 748 747 747 746 745 745 745 745 745 745 744 743 742 741 740 739 738 736 735 734 732 731 730 728 727 725 724 722
Wind_Speed
37 39 40 39 37 35 31 29 27 25 23 21 19 19 19 19 18 17 16 16 17 17 17 16 15 14 12 12 11 11 11 11 11 11 12 12 11 11 12 13 15 15 15 15 15 16 17 18 20 21 20 19 20 20 19 18 17 17 15 15 15 14 14 14 10 11 21 24 23 25 27 28 31 33 35 37 37 37 37 36 35 35 35 36 36
39 39 38 38 38 36 32 30 29 26 24 21 20 20 20 20 20 19 18 17 18 18 18 17 16 14 13 12 11 11 11 11 11 11 12 12 12 13 13 14 14 15 15 16 17 17 18 18 19 19 20 21 21 22 22 21 19 19 20 20 21 19 17 18 15 11 16 23 24 25 27 28 30 33 35 36 38 38 38 38 37 36 36 36 36
38 38 37 37 38 36 33 32 31 28 26 24 22 21 22 22 22 22 20 18 18 19 18 17 16 14 12 12 12 12 12 12 12 12 13 13 14 13 12 12 13 14 15 16 17 17 17 17 17 18 19 22 22 22 23 23 22 22 24 24 24 23 20 20 20 16 16 21 24 24 25 27 30 33 35 36 37 37 37 38 38 38 38 37 37
37 37 37 37 37 37 36 34 32 30 29 27 25 23 23 23 23 23 21 18 19 19 18 17 16 15 14 13 13 14 14 13 13 13 14 14 14 12 11 12 12 13 14 16 16 15 14 15 16 16 17 20 22 23 23 24 25 25 26 27 27 27 25 23 23 22 19 19 23 24 24 26 30 34 35 36 37 36 36 37 38 39 39 38 37
36 37 38 37 38 39 38 36 35 33 32 29 26 25 24 24 24 24 22 20 20 20 19 19 19 18 17 16 15 14 13 13 14 14 14 14 14 13 12 12 12 13 14 15 15 14 13 14 15 15 17 19 21 23 23 24 25 25 26 28 29 29 27 25 25 26 24 22 23 25 24 25 30 33 34 34 36 37 37 37 38 38 39 39 37
36 37 38 38 39 40 39 38 38 35 33 31 28 27 26 24 24 24 23 21 20 20 19 20 20 20 18 17 16 15 14 14 15 14 14 14 14 13 12 12 13 14 14 14 14 15 15 15 16 16 17 19 21 22 23 24 25 25 26 28 29 29 28 27 27 27 25 23 23 24 24 25 28 31 33 33 33 34 37 39 39 36 35 37 38
36 37 39 39 39 39 39 40 40 37 34 32 30 29 27 24 24 24 23 22 21 20 20 20 20 19 18 16 15 15 16 16 16 16 15 13 13 13 13 13 14 14 15 16 16 16 16 16 16 17 18 20 21 22 23 24 25 25 26 27 28 28 27 27 27 25 24 22 22 22 24 25 26 29 32 32 30 31 33 34 35 35 35 36 38
37 38 39 38 37 40 42 43 41 37 34 33 30 29 28 25 24 24 24 24 22 20 20 19 20 19 17 15 14 14 16 16 17 16 15 13 13 14 14 13 14 15 16 18 18 17 17 17 17 19 19 20 21 21 22 23 24 25 24 25 26 27 26 26 25 23 23 22 21 21 23 24 26 28 30 28 25 27 29 30 32 35 36 37 37
38 39 38 37 38 42 44 44 41 38 36 33 31 30 29 26 25 25 25 25 23 21 20 19 19 18 17 15 13 14 16 18 18 17 15 14 14 15 14 14 15 16 17 18 20 19 18 18 19 19 20 20 19 19 19 20 22 24 24 24 25 26 25 24 23 23 22 19 18 20 20 21 24 26 26 24 23 26 31 31 33 36 36 36 38
38 39 38 38 39 41 43 42 41 39 37 34 32 31 30 27 26 27 26 26 24 22 21 21 21 19 17 16 15 17 19 19 19 19 18 16 15 15 15 15 15 16 17 18 19 19 17 17 19 19 20 19 19 18 18 18 20 23 24 24 25 25 24 23 22 22 20 17 17 19 17 18 24 25 25 27 27 28 31 30 31 35 34 30 33
39 39 36 35 37 40 43 44 43 42 38 34 32 31 29 28 27 28 28 27 25 23 24 24 23 20 18 18 19 20 21 20 20 20 19 17 16 15 16 17 16 15 16 17 17 16 15 16 17 18 19 19 18 17 18 18 19 20 22 23 22 23 23 23 23 22 20 18 19 20 17 18 25 27 27 30 29 27 30 31 30 33 30 22 21
38 35 32 34 38 41 42 41 36 30 25 25 28 30 29 27 28 29 29 28 26 25 25 26 24 21 20 20 21 22 22 22 21 21 20 19 18 18 18 18 18 16 16 16 15 14 14 15 15 16 17 16 15 16 18 19 19 20 21 21 20 20 20 21 22 22 22 21 20 20 20 21 25 27 27 29 30 30 32 33 31 31 30 25 21
33 29 28 29 30 30 29 25 20 17 17 23 28 30 29 29 30 31 30 29 27 27 28 28 25 23 22 22 23 23 23 23 22 22 22 22 21 20 19 19 18 16 16 16 15 14 14 14 14 14 15 14 14 16 17 18 20 20 21 21 20 19 19 20 21 22 24 23 21 23 25 24 25 28 29 30 32 33 32 33 33 32 31 30 30
24 22 22 24 26 29 29 26 22 22 23 25 27 29 31 31 31 32 31 30 29 29 30 29 27 25 25 24 24 24 24 23 22 22 23 23 23 21 19 18 17 17 16 16 15 14 14 13 13 14 15 14 15 16 17 19 20 20 21 21 20 20 20 21 23 24 26 25 24 26 28 27 28 31 33 33 33 34 33 34 37 36 36 38 39
19 21 24 27 32 38 40 38 33 27 24 23 24 27 31 32 33 33 32 31 32 31 31 29 28 26 25 24 24 25 24 23 22 23 23 23 23 20 18 18 17 17 17 16 15 14 13 12 12 14 15 16 16 16 18 20 20 20 20 20 20 21 22 24 25 26 26 25 24 26 28 30 31 33 35 34 35 37 38 39 41 42 42 42 40
22 24 27 31 36 41 41 38 32 24 21 21 23 27 31 33 35 35 34 34 33 31 30 29 27 26 25 24 24 24 23 21 21 23 24 23 22 20 18 18 18 18 17 17 16 14 13 11 12 13 15 17 17 15 16 17 17 17 18 19 21 23 25 25 26 26 25 23 24 27 30 31 33 35 36 35 37 42 42 40 41 42 37 32 30
25 28 32 35 37 36 32 29 25 19 19 22 26 29 32 34 36 36 34 34 33 31 31 28 25 24 22 19 18 18 19 19 18 20 22 21 20 20 19 18 18 18 18 18 16 14 11 10 12 14 16 16 15 13 12 12 13 15 17 19 21 24 27 27 26 26 25 25 27 30 32 33 34 36 38 37 39 43 40 34 37 40 32 21 17
28 32 35 34 31 30 28 27 25 23 23 27 29 31 35 39 38 35 34 33 32 32 30 24 20 19 16 13 12 15 20 21 18 17 19 19 20 20 19 18 18 19 19 18 15 12 10 10 12 13 15 14 13 12 11 12 14 16 17 19 20 23 25 25 25 27 28 29 32 33 33 34 34 36 39 39 39 40 37 34 37 39 32 22 18
32 32 30 29 29 29 29 27 26 26 27 32 34 35 37 35 30 29 31 32 30 29 25 20 17 15 11 9 11 16 22 22 17 14 16 18 19 19 18 18 19 19 18 16 14 12 11 11 11 12 13 12 11 11 12 14 15 16 15 16 17 19 21 22 24 28 31 33 34 34 33 34 34 35 37 36 35 38 38 38 39 38 34 31 27
32 29 30 32 32 30 27 25 25 26 30 36 37 34 28 20 17 21 24 25 25 22 17 13 11 9 7 10 14 17 21 20 15 14 15 16 17 17 17 18 19 18 16 14 14 13 12 10 10 11 11 11 11 12 13 14 14 13 12 12 13 17 21 23 25 27 29 30 30 29 31 32 32 32 32 32 34 37 40 41 41 40 38 36 33
28 30 32 32 29 26 24 22 22 26 33 37 32 25 20 20 23 26 24 22 20 17 13 11 8 5 10 15 17 18 19 17 14 13 13 14 15 16 17 17 17 15 14 13 13 13 12 11 10 10 11 11 11 12 12 11 11 10 10 11 14 17 20 23 25 25 24 24 25 25 27 28 29 30 31 33 35 39 42 44 44 44 42 39 35
19 22 25 27 26 26 25 21 21 26 29 27 22 19 20 23 25 24 19 16 15 15 14 12 10 9 13 17 19 17 15 13 12 12 12 13 15 16 16 16 15 14 13 13 12 12 11 11 10 10 11 11 10 10 9 9 9 10 11 13 15 17 19 20 21 21 20 21 22 22 23 24 26 29 32 34 37 40 43 45 45 46 47 44 37
14 15 20 25 28 27 21 16 17 19 17 15 14 14 14 15 15 15 14 14 15 15 13 10 9 12 15 17 16 12 11 11 12 12 14 15 15 15 14 14 13 13 12 12 12 12 11 10 10 11 10 8 7 8 7 8 9 11 12 13 14 15 16 17 16 16 17 18 19 20 22 24 26 29 32 35 38 41 42 43 45 47 48 48 39
16 16 20 24 24 22 17 12 11 9 9 8 9 11 13 15 18 20 21 22 21 17 12 9 9 11 13 13 11 10 11 12 12 13 14 14 14 14 13 13 13 12 11 11 11 12 11 10 11 10 8 6 6 7 7 9 10 11 11 11 11 12 13 14 14 15 16 17 18 20 22 25 26 29 32 35 37 39 39 41 45 46 46 45 37
16 19 23 22 19 19 18 14 11 10 10 10 12 17 22 25 26 26 25 23 18 13 9 9 10 11 12 12 11 11 12 12 12 13 14 13 13 12 12 12 11 11 10 11 11 11 11 11 10 7 5 5 5 7 8 8 9 10 9 9 9 9 11 13 14 15 16 18 19 20 23 27 28 30 32 34 35 37 37 39 44 46 45 43 36
18 19 21 20 17 16 15 14 14 13 14 16 20 23 27 28 26 24 22 18 14 12 11 11 12 13 13 12 11 11 11 11 12 13 13 13 12 11 11 10 10 10 10 10 11 11 11 9 6 4 3 4 5 7 7 7 7 7 7 7 7 9 11 13 14 16 17 18 19 21 24 27 29 30 32 33 34 36 36 37 40 43 44 40 33
25 23 21 18 16 16 14 13 14 13 13 16 18 21 24 23 20 21 20 17 14 12 13 15 16 15 12 11 10 10 10 12 13 14 14 13 12 11 10 10 10 10 10 10 10 10 7 5 4 3 3 4 5 7 7 6 6 6 6 6 8 9 11 12 13 14 16 18 19 21 24 26 28 30 32 33 33 34 36 36 34 36 40 38 29
29 25 21 17 15 14 10 7 8 8 10 13 17 19 19 18 18 19 18 15 14 14 16 18 16 13 11 10 9 10 13 15 15 14 14 13 12 11 10 10 10 10 10 9 9 6 5 5 4 3 4 5 6 6 6 5 6 7 7 8 9 10 11 12 12 14 15 17 19 21 23 26 28 30 31 31 32 33 35 36 33 33 37 36 27
27 23 19 18 17 13 9 5 2 4 10 15 16 14 15 17 17 16 14 14 14 14 15 15 13 11 9 9 11 13 14 13 12 12 13 12 11 10 10 9 9 9 9 9 6 5 7 6 4 3 4 6 6 6 7 8 8 9 9 10 11 12 13 14 15 15 16 18 19 21 23 25 27 29 29 30 31 33 34 34 33 33 34 31 26
26 22 19 20 18 14 11 11 10 12 17 19 15 13 14 15 14 14 14 15 14 13 12 11 10 9 8 10 11 12 11 9 7 8 11 11 10 9 9 8 8 8 8 6 4 6 7 5 3 4 5 6 5 6 9 10 11 12 12 12 12 13 14 14 15 15 16 18 19 20 22 23 25 27 28 28 31 33 33 32 32 32 31 28 26
24 21 19 19 20 19 20 22 22 22 23 20 16 16 15 13 12 13 13 13 13 13 11 10 8 8 9 9 9 9 9 7 6 7 9 10 9 9 8 7 7 6 5 3 3 5 5 4 4 4 4 4 5 7 9 11 12 12 14 14 14 14 14 14 14 15 16 18 19 20 22 22 23 25 26 26 28 30 32 32 32 30 30 28 25
21 21 21 21 20 19 20 21 22 22 20 18 18 19 18 15 13 12 12 12 12 11 10 9 8 8 8 7 6 6 6 6 6 7 8 9 9 9 8 6 5 4 2 2 2 3 3 3 2 2 3 4 6 7 9 9 10 11 13 14 14 14 14 14 14 14 15 17 18 20 21 22 23 24 25 25 26 27 29 30 30 28 27 27 25
15 15 17 18 18 17 16 16 17 17 17 18 20 20 19 18 16 13 11 11 10 9 9 8 7 7 6 5 4 4 4 5 6 6 7 7 8 8 7 5 4 2 1 2 2 2 2 1 1 3 4 5 6 7 8 8 8 9 11 13 14 14 14 13 12 13 14 15 17 19 20 22 23 24 25 25 25 25 25 27 28 28 26 25 24
13 13 12 13 14 14 13 14 15 16 17 20 21 20 19 18 17 16 14 12 10 10 10 8 7 6 5 4 3 3 4 5 5 5 6 6 6 7 7 6 4 2 2 1 1 1 1 2 3 3 4 4 5 6 7 7 8 9 11 13 14 15 14 12 11 12 13 15 17 18 20 21 22 23 25 25 25 25 25 25 26 26 24 23 23
13 12 11 13 15 17 16 16 16 17 18 20 20 18 16 15 15 15 16 14 13 13 10 8 7 6 4 4 4 4 4 5 4 4 4 4 4 4 7 8 6 3 2 1 1 2 2 2 3 2 3 3 4 5 6 8 9 10 12 14 15 15 13 11 11 12 13 15 17 18 19 21 22 23 23 23 24 24 24 25 25 24 23 23 23
13 13 13 15 18 20 20 20 20 20 21 21 19 17 16 15 16 16 15 14 13 12 10 9 8 7 6 6 6 6 6 5 4 3 4 4 4 3 5 8 9 7 5 4 3 2 1 0 1 2 3 3 4 5 7 8 10 11 12 14 14 13 11 10 11 12 13 15 16 18 19 21 22 23 23 22 23 23 24 24 24 23 23 23 22
14 14 14 16 18 19 20 21 22 22 22 21 18 17 16 15 15 15 14 13 12 11 11 11 11 11 11 10 9 9 8 6 5 4 4 5 5 4 3 5 8 8 7 5 4 3 2 2 3 2 2 3 4 5 7 10 12 13 13 12 11 10 9 9 10 12 13 15 16 18 19 21 22 23 22 22 23 24 24 25 24 24 25 25 24
13 12 12 14 15 16 17 19 19 19 19 17 15 14 14 13 13 14 15 15 14 13 14 15 15 15 13 12 12 11 10 8 7 6 5 5 5 4 3 3 6 7 7 5 4 3 2 2 2 2 2 3 4 6 9 11 13 12 11 10 9 7 7 8 9 11 13 14 16 17 19 21 23 23 23 22 23 24 24 25 25 24 25 26 24
11 11 11 12 12 13 14 15 15 14 13 11 10 10 11 12 14 16 17 16 15 16 17 18 18 17 15 14 14 13 11 10 10 10 9 9 8 6 5 5 6 7 6 5 4 3 3 3 2 2 2 3 5 8 10 12 11 10 9 8 7 7 7 8 10 12 13 15 16 17 19 21 22 23 23 22 22 23 24 24 24 23 22 23 23
12 11 11 11 12 11 11 11 11 11 11 10 10 12 15 17 19 20 19 17 17 17 18 19 19 18 16 15 15 13 12 11 11 12 13 13 12 10 8 7 7 7 6 5 4 3 3 3 3 2 2 3 6 8 10 10 9 8 8 7 6 7 8 10 11 12 13 15 16 17 19 21 22 23 24 23 23 23 23 23 24 23 21 21 22
12 12 12 12 11 11 10 10 11 12 12 12 14 16 17 18 19 20 20 19 19 18 17 19 19 18 17 16 15 12 11 11 12 12 12 14 14 14 11 9 7 7 6 5 4 3 4 4 3 2 2 3 6 8 10 9 8 7 7 6 6 7 8 9 10 12 12 13 15 17 18 20 21 22 23 23 24 24 24 23 23 23 22 22 22
12 13 12 11 11 10 10 11 11 13 14 15 16 16 16 14 13 15 18 19 18 16 15 17 17 17 18 17 15 12 11 11 10 10 11 11 12 13 12 9 7 6 6 5 4 4 4 4 3 2 2 3 6 8 10 9 7 7 6 5 5 6 8 9 10 11 12 12 14 16 17 18 20 21 21 22 23 24 25 25 24 24 23 23 22
12 12 11 10 10 9 9 9 9 10 11 10 9 10 11 11 12 13 13 14 15 15 15 16 16 17 18 18 15 13 11 10 10 10 9 9 10 12 11 8 5 5 5 5 4 4 4 4 3 3 2 3 6 8 9 8 7 6 5 4 4 6 7 9 9 10 11 12 13 15 16 17 18 20 20 21 22 23 25 25 25 25 24 23 22
12 11 9 8 8 7 6 6 7 8 8 6 5 6 8 9 11 11 10 12 15 17 16 16 16 17 18 18 16 14 12 11 11 10 9 9 11 11 9 7 5 5 5 5 4 4 4 4 4 3 2 3 5 7 9 8 6 6 5 4 4 5 7 8 10 10 11 12 13 14 15 16 17 19 19 20 20 22 24 25 25 25 25 24 23
10 8 7 6 6 6 6 8 9 9 7 5 7 10 10 9 9 10 11 13 15 15 15 15 16 18 20 19 17 15 13 11 11 10 9 10 10 9 8 7 6 6 6 6 5 4 5 5 5 3 2 3 4 7 9 8 6 5 4 3 3 4 6 8 9 10 11 12 13 13 14 15 16 17 18 19 19 20 22 23 23 24 25 24 23
7 6 6 5 5 7 9 10 9 7 7 7 9 11 10 9 9 11 12 12 13 13 13 15 17 19 19 18 15 13 12 11 12 11 9 10 10 9 8 7 7 8 9 8 6 5 5 5 4 3 3 2 3 6 9 9 7 5 4 4 2 3 5 7 8 9 10 11 12 13 13 13 14 15 15 16 17 18 20 22 22 23 23 24 23
7 6 5 5 5 7 8 7 6 5 5 6 7 8 8 8 9 11 11 12 12 12 13 16 18 19 19 17 15 12 11 11 11 11 9 9 10 9 9 8 9 10 11 10 8 6 6 5 4 3 2 2 3 5 8 10 9 6 5 4 3 2 3 5 6 8 9 11 12 11 11 12 13 13 14 14 15 17 19 20 21 22 23 23 24
7 6 5 4 4 5 5 5 4 5 6 7 7 8 8 10 11 11 11 12 13 13 14 16 18 19 19 17 15 13 12 11 11 11 10 9 9 10 10 9 9 10 13 12 10 8 7 5 4 3 1 1 2 4 7 9 10 7 6 5 3 2 2 3 5 6 7 9 10 9 9 11 12 11 12 13 14 16 18 19 20 21 22 23 24
7 6 5 3 2 2 3 4 6 7 8 9 10 11 11 12 12 13 13 13 14 15 15 16 17 19 19 18 16 13 13 13 13 12 12 10 10 10 10 8 7 10 13 14 11 9 7 6 4 3 2 1 2 3 5 8 10 9 7 6 4 2 2 1 3 4 6 8 9 7 7 9 10 10 12 13 14 15 16 17 18 20 22 22 24
6 5 3 3 3 2 1 1 3 6 7 9 11 13 13 14 14 14 14 15 16 16 16 17 17 18 19 19 18 15 15 15 15 14 13 13 12 12 11 9 9 11 14 14 12 10 8 6 5 3 3 2 2 2 5 8 10 10 9 7 5 3 2 2 1 2 4 6 7 6 6 8 9 9 11 12 13 14 15 16 17 19 21 22 23
3 3 3 3 3 3 3 2 1 1 3 5 7 10 13 15 17 17 16 16 17 18 18 18 18 18 19 20 19 17 16 15 15 15 14 14 14 14 14 12 12 13 15 15 13 11 9 7 5 4 3 3 3 3 4 7 8 10 10 9 6 4 3 3 1 1 2 4 5 4 4 7 9 10 11 12 13 13 15 16 16 18 20 21 21
Wind_Direction
200 200 200 200 202 204 206 206 205 206 207 211 215 217 217 216 215 208 202 205 208 212 217 220 222 226 230 238 249 257 258 256 257 263 269 273 274 275 277 280 284 287 287 285 283 282 279 272 270 267 257 252 254 252 248 247 249 253 256 256 256 254 249 241 234 268 285 289 293 302 311 315 316 319 320 319 320 320 318 316 315 313 312 310 308
201 201 199 198 201 203 203 204 204 205 207 210 214 218 219 219 218 213 207 208 213 219 223 224 228 234 238 246 252 252 253 257 263 270 273 276 278 282 286 288 291 291 287 285 285 285 282 275 272 270 262 256 258 258 255 251 250 254 256 255 256 257 253 246 241 249 275 285 289 296 305 306 307 312 315 313 314 315 314 313 313 311 309 307 305
201 201 199 198 200 201 203 202 202 204 206 208 212 217 219 220 221 219 214 214 219 222 226 230 235 240 240 242 243 244 253 259 263 268 271 277 283 285 288 288 289 291 289 290 291 290 286 279 275 272 266 262 264 264 260 257 256 257 258 256 255 258 258 252 249 247 257 274 281 286 296 300 300 305 310 309 309 309 309 309 310 309 307 306 303
201 199 198 198 198 199 201 201 201 204 207 209 211 216 220 220 223 223 220 220 221 221 227 234 239 241 238 236 238 245 253 256 260 266 270 277 281 280 282 285 287 291 292 293 293 292 288 283 281 279 271 266 269 270 264 260 260 260 260 258 254 256 259 256 255 254 254 265 275 278 286 294 297 302 307 306 306 307 306 306 306 306 305 304 301
201 199 198 196 195 196 197 198 200 204 208 210 210 213 219 220 221 223 223 224 224 224 230 236 240 243 241 239 241 244 251 256 262 267 269 271 272 274 281 287 290 292 292 290 288 287 284 283 284 284 278 273 274 274 270 265 264 263 263 262 259 258 260 259 259 259 257 259 270 277 283 289 293 299 303 304 304 306 306 305 304 304 304 303 300
200 198 197 196 194 194 194 196 200 204 210 212 211 212 216 218 221 224 226 227 226 227 233 239 244 247 246 243 242 244 250 259 265 266 266 268 272 277 284 289 292 292 288 284 283 283 282 281 282 283 280 278 278 278 276 272 268 268 268 269 267 264 263 263 262 260 259 261 269 277 282 287 290 294 300 301 300 302 304 305 305 304 303 301 299
199 198 198 196 194 192 192 197 202 204 209 213 212 211 214 217 220 224 227 227 228 231 236 243 247 248 245 243 245 249 253 259 266 265 264 271 278 281 284 287 289 289 287 284 281 279 279 278 278 279 278 278 280 281 279 275 272 271 272 274 273 267 265 267 266 261 260 263 268 273 280 286 287 289 295 299 297 297 300 302 303 305 304 300 297
199 199 199 196 193 192 194 198 202 203 208 213 213 211 212 216 219 222 225 228 230 233 238 243 244 242 241 240 244 249 253 258 262 260 261 269 274 276 278 279 282 285 285 284 281 277 276 276 275 276 278 280 284 285 283 278 274 273 275 277 275 270 267 268 266 262 261 262 266 272 279 285 287 288 294 297 294 296 301 301 299 301 302 299 296
200 200 199 196 194 193 194 197 200 202 207 212 213 211 212 215 218 221 224 228 231 234 238 239 238 237 237 237 241 248 254 258 259 257 259 265 267 269 271 273 276 280 281 279 280 280 282 284 284 283 281 282 285 288 287 283 277 274 277 280 277 273 269 266 263 260 260 260 263 271 277 283 286 288 291 293 293 297 301 299 295 296 298 296 294
203 202 200 198 195 193 193 194 197 201 206 212 213 212 213 216 220 224 228 232 234 237 240 238 235 237 238 238 244 251 255 258 259 259 259 262 265 266 268 273 277 279 280 280 281 284 291 296 296 294 289 283 283 286 287 285 280 276 278 279 277 273 268 263 259 258 258 256 261 270 275 279 283 287 289 294 297 298 299 297 295 296 297 294 292
205 204 201 197 193 192 191 193 196 200 205 210 211 212 214 217 222 227 231 234 236 238 240 238 236 239 242 245 249 252 254 257 260 261 259 258 264 267 270 277 281 280 281 281 281 287 295 299 299 297 292 286 283 285 288 288 286 283 282 280 276 272 267 261 258 257 256 254 260 268 270 272 281 288 291 295 298 298 298 297 295 295 296 293 292
208 206 200 196 194 191 188 189 192 195 203 212 215 215 216 219 224 228 231 233 236 237 237 236 237 241 244 247 251 252 254 257 260 262 261 258 260 265 270 276 279 280 283 281 281 289 298 299 297 293 292 291 289 289 289 288 290 290 287 282 274 269 267 264 262 263 262 257 259 266 268 271 280 287 291 296 299 300 299 298 295 293 291 288 285
209 204 197 193 189 181 178 181 181 184 203 221 226 222 219 221 226 229 231 232 234 235 234 235 238 242 244 247 250 253 255 259 261 261 261 259 257 260 268 274 276 280 285 282 282 292 298 295 291 288 289 291 289 287 286 285 287 288 286 281 275 272 273 275 276 277 273 266 262 266 271 275 279 285 292 297 299 299 298 297 295 292 288 284 282
208 199 187 180 174 169 172 180 184 189 203 221 232 227 221 224 227 229 230 232 233 234 233 236 240 243 244 247 250 254 257 261 263 264 263 261 256 258 265 270 273 279 282 279 282 291 292 287 286 287 288 289 287 285 285 284 284 284 281 279 278 280 284 285 286 286 283 277 270 268 275 281 281 285 293 298 297 295 295 296 296 293 289 286 283
200 190 181 175 172 174 179 184 187 192 202 222 239 235 226 226 228 230 231 232 234 235 235 238 242 243 246 249 252 256 261 265 267 267 267 264 257 258 263 265 269 275 275 274 279 285 283 279 283 289 291 292 291 289 287 285 282 280 279 280 285 290 291 290 289 289 289 286 279 275 281 284 284 288 295 299 300 299 297 297 296 294 291 288 284
192 186 180 178 178 180 180 180 183 192 206 224 242 242 233 230 230 230 231 233 235 237 238 240 241 243 246 249 252 256 262 269 273 272 271 266 259 257 260 260 266 269 267 269 276 279 277 277 285 293 294 295 295 293 288 283 279 280 283 289 294 294 293 293 293 293 290 288 285 286 287 287 287 291 296 302 308 306 303 300 298 297 293 289 285
188 184 183 183 181 179 173 168 175 190 208 224 238 241 237 236 233 230 230 232 232 234 237 238 240 243 246 249 257 266 270 275 280 277 273 266 255 253 256 259 264 265 263 268 273 273 275 283 292 295 294 295 292 286 281 279 281 287 291 295 295 294 296 300 301 298 295 293 293 295 294 290 288 292 298 306 312 310 304 300 300 301 297 289 288
187 187 187 180 171 168 166 168 174 179 193 216 233 238 237 237 234 230 229 230 231 234 236 235 235 236 236 236 251 269 275 277 278 275 269 259 249 249 255 260 262 261 261 266 270 273 281 292 295 293 290 289 282 274 276 283 289 294 296 297 298 297 301 305 304 302 302 302 301 301 300 295 292 295 301 307 312 311 306 300 300 302 297 289 289
191 187 176 162 160 166 166 170 175 176 191 217 232 237 237 237 236 234 232 230 231 233 231 225 221 221 223 237 259 272 277 275 269 260 256 249 244 249 257 259 257 256 260 266 271 279 291 295 292 287 284 281 274 273 283 291 296 300 301 302 301 298 300 303 303 304 306 306 305 305 304 302 300 302 305 309 314 315 312 307 305 303 297 292 289
188 173 158 156 164 166 158 163 176 185 205 225 233 235 238 243 246 246 242 235 230 227 217 204 205 219 243 263 268 271 270 264 255 251 252 246 245 252 256 255 255 259 264 270 276 287 297 298 291 282 277 275 275 282 291 297 302 305 303 301 300 299 302 304 305 307 308 305 304 304 304 306 307 310 313 316 319 320 319 316 313 307 302 296 292
175 163 157 156 160 159 156 165 182 198 215 228 233 236 240 243 244 245 242 233 219 202 183 175 189 256 286 272 258 253 254 254 252 253 253 248 249 253 254 254 259 264 268 274 283 292 300 301 295 283 274 275 282 290 297 303 307 307 303 302 301 301 304 306 306 306 304 301 302 305 307 311 315 318 321 323 323 323 322 321 319 315 310 303 295
160 153 151 153 159 163 168 182 200 211 222 234 242 244 244 243 240 231 222 211 195 183 183 192 209 246 265 259 250 245 246 251 252 251 251 251 253 255 255 256 261 264 269 278 289 295 299 299 295 287 282 284 289 294 299 303 305 305 303 302 302 301 302 303 303 305 305 306 310 312 314 319 322 323 325 326 325 325 324 323 322 322 320 315 306
143 141 149 160 168 172 180 206 226 228 238 255 253 238 232 232 223 207 198 198 197 199 205 209 217 230 235 237 240 239 238 242 246 251 255 258 257 257 256 256 259 265 274 286 295 297 297 294 290 289 289 289 287 288 295 299 300 303 305 304 304 303 304 306 309 313 315 317 320 320 322 325 325 325 326 327 326 326 325 325 327 328 328 328 323
154 158 164 169 174 180 197 239 266 249 233 237 234 231 230 223 213 207 205 202 200 202 211 218 225 226 220 217 218 218 226 238 249 256 260 259 257 255 253 255 261 269 281 292 296 298 297 292 289 289 286 277 278 291 301 303 303 306 308 308 308 311 316 323 328 329 328 330 331 328 326 328 327 325 325 325 325 326 326 329 334 335 333 335 339
157 169 177 180 187 198 212 238 263 254 232 232 245 244 232 216 203 197 194 192 193 202 215 219 214 202 194 194 201 212 229 244 253 258 257 254 251 249 250 256 265 275 286 292 294 295 295 293 291 285 266 261 286 309 315 311 309 309 308 311 317 325 334 340 341 340 339 337 334 330 327 329 330 328 328 328 328 330 332 334 339 341 340 342 350
141 157 168 175 190 204 210 222 234 235 235 242 242 229 211 198 189 184 185 190 202 211 207 195 187 186 190 197 206 218 236 249 252 251 248 244 243 244 250 260 269 278 286 288 289 291 292 288 278 248 234 265 305 320 319 315 313 311 311 319 331 342 349 350 348 347 344 339 334 330 329 331 333 334 336 337 335 336 338 338 339 342 342 342 348
120 128 140 153 172 183 188 204 215 215 227 236 227 208 198 193 187 184 189 197 199 193 185 183 185 190 198 205 212 225 241 247 244 240 237 235 236 241 252 261 269 277 280 281 285 288 277 250 226 222 250 293 315 321 323 326 329 330 334 342 348 354 357 355 354 354 351 343 336 332 332 336 339 341 342 340 338 337 341 342 339 339 342 343 343
118 123 132 138 145 149 153 178 201 200 208 210 200 193 196 200 198 195 197 201 196 188 185 187 192 199 206 210 217 228 237 242 242 238 233 231 233 243 254 261 267 273 276 279 283 273 230 201 205 237 273 298 314 323 335 351 358 358 359 359 358 359 360 359 0 2 1 353 344 339 340 342 344 344 342 339 338 339 343 345 343 341 344 346 344
129 130 130 126 120 112 99 92 120 201 203 197 196 201 205 204 204 202 199 198 198 196 194 196 202 210 216 221 225 227 234 248 256 246 232 228 235 246 253 258 264 272 282 289 280 232 200 197 217 255 288 308 321 338 355 5 8 10 9 6 2 1 3 5 5 4 3 359 351 345 345 346 345 345 343 340 339 340 344 347 346 345 346 346 344
132 136 140 141 144 150 156 160 180 211 213 207 209 213 204 197 196 194 190 189 190 192 196 201 207 214 221 227 231 233 243 262 267 240 224 228 240 248 248 252 262 273 287 294 256 207 201 213 254 289 309 324 342 6 13 12 9 7 6 7 4 0 1 5 5 3 3 1 355 349 348 347 346 345 344 341 339 341 345 348 349 349 349 347 347
143 156 170 173 173 179 183 186 194 207 211 211 209 201 187 178 179 182 182 182 184 189 196 201 208 217 223 226 231 236 243 250 245 225 223 233 242 241 237 244 261 275 287 283 215 204 218 248 285 309 327 349 12 18 16 13 10 4 359 360 0 357 356 358 360 2 3 2 359 355 352 349 347 346 345 342 341 341 345 350 352 352 350 349 348
164 179 193 193 188 188 195 200 202 203 204 203 199 192 181 170 166 170 177 182 187 192 198 202 209 215 219 221 226 229 226 223 221 222 227 238 240 232 225 236 260 279 285 252 220 226 254 276 301 347 16 25 26 19 10 5 4 359 354 354 354 352 351 352 354 359 4 4 2 358 354 351 350 348 346 345 344 343 345 349 351 350 350 350 349
194 203 206 199 194 197 205 209 207 203 200 196 193 190 185 179 175 174 178 185 190 195 199 201 203 204 206 209 213 216 216 217 220 225 232 239 235 223 219 232 256 283 296 272 259 252 249 257 55 53 38 26 19 11 2 357 353 350 349 349 347 345 344 345 349 356 4 7 5 1 357 356 354 351 349 349 348 346 346 348 349 349 350 350 347
234 239 232 219 215 219 224 224 220 213 206 201 196 191 189 188 186 183 181 184 189 193 193 192 190 191 194 198 207 219 223 219 219 224 234 242 239 231 230 235 246 282 317 309 266 207 168 106 74 49 25 14 1 350 350 351 347 343 343 343 342 340 340 343 353 1 7 11 10 6 3 2 359 354 350 349 350 349 348 348 350 350 348 348 347
237 233 229 228 231 235 237 236 231 222 211 203 197 191 187 191 197 198 197 195 190 185 182 183 185 187 184 185 192 197 196 195 200 219 241 262 274 255 238 230 229 243 266 217 160 151 132 93 60 21 348 337 331 332 337 342 343 341 340 339 339 339 341 349 360 7 12 16 14 11 8 6 3 358 352 349 350 350 348 347 348 348 347 348 348
223 219 220 224 230 235 237 235 232 225 214 205 199 195 194 202 209 211 207 200 190 184 182 184 184 181 176 175 176 175 176 180 189 219 255 283 306 294 244 226 222 224 223 211 197 185 177 212 298 321 310 300 311 326 330 333 338 339 337 337 336 338 346 357 5 11 17 19 17 14 11 8 5 1 356 353 352 352 350 347 347 349 351 352 352
208 210 214 219 225 229 227 224 222 218 210 203 198 196 198 206 213 210 202 196 193 190 190 191 188 184 180 179 180 180 181 188 198 218 252 277 291 301 278 231 218 216 215 211 208 215 237 237 227 243 283 298 314 327 330 332 335 337 336 337 339 345 356 6 11 17 20 21 19 16 13 10 8 5 360 355 354 354 354 352 350 350 354 357 358
190 194 198 203 207 207 206 206 206 205 201 197 195 196 201 209 213 208 203 199 197 195 196 195 192 191 190 189 189 191 194 202 211 219 236 259 270 272 260 228 214 213 212 207 204 209 214 201 200 223 271 306 324 332 335 336 337 338 340 342 349 359 9 16 21 24 24 22 20 18 15 12 11 9 4 359 356 356 356 355 354 353 355 359 359
186 188 190 193 193 193 193 194 193 192 190 187 191 205 215 217 213 208 205 201 197 198 199 197 196 199 200 196 195 200 205 213 223 229 233 243 253 252 238 224 219 218 216 211 205 205 202 194 201 235 274 313 331 337 340 340 342 345 347 351 5 19 25 27 28 28 27 23 20 18 17 15 13 12 9 4 1 360 359 358 359 358 355 354 356
187 185 184 188 190 192 195 195 194 193 192 197 210 220 220 217 212 208 204 200 197 199 201 201 203 206 204 200 202 208 214 225 240 247 246 245 246 241 232 224 221 221 220 214 211 215 213 205 212 241 279 319 336 343 346 347 351 354 356 6 26 34 32 32 31 29 27 24 21 19 19 17 15 15 12 8 6 6 5 3 2 3 1 358 358
184 177 175 180 183 185 190 198 202 203 209 222 230 225 218 214 212 207 203 200 200 202 204 207 210 210 206 204 207 213 222 238 250 253 252 248 241 232 225 222 222 226 226 223 224 228 219 209 215 243 282 324 342 350 355 357 360 2 7 21 39 39 34 33 32 30 27 24 22 21 20 18 17 16 12 9 11 13 13 11 8 7 7 7 6
171 166 167 173 178 181 188 196 204 213 223 229 226 214 207 211 216 211 203 199 199 201 205 208 212 210 205 204 209 218 229 241 246 246 246 242 230 220 216 215 220 229 233 235 241 238 224 216 224 245 289 331 346 354 358 0 4 9 14 23 36 37 35 33 31 30 28 25 22 22 21 19 20 19 15 14 16 17 16 15 14 13 12 12 13
160 161 165 171 175 182 191 199 210 220 220 213 200 194 199 208 214 212 207 202 204 208 208 207 207 206 202 203 210 219 226 231 234 236 234 220 208 206 207 205 211 226 231 234 239 235 231 235 236 242 286 334 347 354 358 1 6 11 14 18 29 34 32 29 28 27 27 25 23 22 20 19 21 21 20 19 21 21 20 18 17 16 16 16 17
146 148 155 164 172 184 196 200 200 195 178 151 153 194 206 203 198 199 204 210 213 214 210 207 204 200 196 199 207 215 219 223 226 226 217 200 197 199 198 193 198 211 217 221 224 226 237 248 245 243 282 334 352 1 6 8 10 11 10 14 26 31 28 26 24 22 23 24 23 21 19 19 20 22 22 22 23 24 24 22 19 19 19 19 20
132 138 150 163 174 184 181 172 173 180 183 193 213 215 212 209 208 209 210 211 211 210 209 208 204 197 193 196 202 210 217 223 225 221 212 203 201 200 196 196 204 214 217 220 222 228 242 249 247 252 291 331 359 13 17 16 15 13 9 8 15 20 21 21 18 16 17 19 19 19 19 19 20 22 23 24 26 28 28 26 25 23 22 22 22
129 138 148 158 165 167 166 167 177 198 224 240 235 226 223 224 217 207 201 202 205 207 207 204 199 195 195 198 203 208 216 223 227 225 217 208 204 201 199 207 223 229 226 223 224 231 240 244 247 265 299 330 10 22 20 19 18 15 8 5 4 8 13 13 11 10 11 10 10 14 19 20 22 24 24 24 28 32 33 33 33 31 28 27 26
130 131 136 144 153 160 167 178 194 212 223 230 233 234 233 223 206 197 200 208 214 213 208 202 199 199 200 202 204 209 215 220 223 223 219 214 212 210 211 223 234 231 221 216 220 230 234 237 246 265 296 348 19 21 21 22 23 17 5 1 353 342 357 4 3 3 4 2 1 7 16 20 22 26 28 29 32 35 36 38 39 37 36 34 30
134 131 128 133 153 172 187 203 211 212 215 220 223 226 226 220 213 210 211 213 214 212 208 203 202 203 203 202 203 208 210 208 207 210 211 210 210 210 214 225 234 224 212 209 217 225 227 231 245 259 271 333 8 16 21 24 24 18 9 1 347 311 321 357 358 354 356 358 359 6 15 18 21 29 34 37 40 40 39 42 43 43 42 41 37
126 122 115 109 124 178 224 231 228 227 228 226 223 223 224 224 224 222 216 212 213 214 212 209 207 206 204 202 202 204 202 197 196 199 202 200 200 206 212 219 223 215 209 209 216 223 224 228 239 249 250 274 341 7 15 19 20 17 9 2 348 308 268 320 353 352 353 356 360 9 17 18 24 37 43 45 49 48 46 47 49 48 48 47 45
120 118 115 110 107 109 136 214 231 239 241 239 236 234 232 232 233 232 226 220 218 219 220 219 217 213 208 205 203 203 200 197 196 199 203 203 205 211 216 219 217 214 212 213 218 222 221 223 227 232 241 259 288 337 2 10 14 12 7 359 345 314 262 257 326 350 352 353 359 12 25 26 33 46 51 52 54 55 54 55 54 53 52 52 51
134 133 143 141 129 119 116 115 129 199 243 256 257 253 248 245 244 242 237 230 227 228 229 229 227 222 216 212 210 209 208 204 203 207 212 216 219 223 225 223 217 213 213 215 218 218 216 216 222 226 236 253 269 302 343 359 5 8 6 359 343 313 263 241 258 324 350 351 356 14 36 38 41 48 54 56 59 60 61 62 61 58 57 57 58